| time (UTC) | temp C | wind direction | speed KPH | gust KPH | rain 1hr cm | rain 24hr cm | rain mn cm | humidity % | barometer mb |
| 20260505184516 | 27 | 9 | 1.6 | 9.7 | 0.00 | 0.00 | 0.00 | 53 | 1009.8 |
| 20260505184016 | 26 | 336 | 0.0 | 6.4 | 0.00 | 0.00 | 0.00 | 54 | 1009.7 |
| 20260505183513 | 26 | 338 | 3.2 | 8.0 | 0.00 | 0.00 | 0.00 | 55 | 1009.7 |
| 20260505183014 | 26 | 326 | 0.0 | 11.3 | 0.00 | 0.00 | 0.00 | 55 | 1009.7 |
| 20260505182513 | 26 | 37 | 1.6 | 8.0 | 0.00 | 0.00 | 0.00 | 56 | 1009.6 |
| 20260505181515 | 26 | 14 | 1.6 | 8.0 | 0.00 | 0.00 | 0.00 | 56 | 1009.7 |
| 20260505181015 | 26 | 336 | 3.2 | 6.4 | 0.00 | 0.00 | 0.00 | 56 | 1009.8 |
| 20260505180514 | 26 | 7 | 0.0 | 4.8 | 0.00 | 0.00 | 0.00 | 56 | 1009.8 |
| 20260505180013 | 26 | 315 | 0.0 | 4.8 | 0.00 | 0.00 | 0.00 | 56 | 1009.7 |
| 20260505175513 | 26 | 325 | 0.0 | 4.8 | 0.00 | 0.00 | 0.00 | 55 | 1009.7 |
| 20260505175015 | 26 | 267 | 0.0 | 4.8 | 0.00 | 0.00 | 0.00 | 55 | 1009.8 |
| 20260505174514 | 26 | 310 | 0.0 | 6.4 | 0.00 | 0.00 | 0.00 | 55 | 1009.7 |
| 20260505174013 | 26 | 348 | 1.6 | 6.4 | 0.00 | 0.00 | 0.00 | 55 | 1009.6 |
| 20260505173511 | 26 | 346 | 0.0 | 4.8 | 0.00 | 0.00 | 0.00 | 55 | 1009.6 |
| 20260505173011 | 26 | 306 | 0.0 | 4.8 | 0.00 | 0.00 | 0.00 | 55 | 1009.6 |
| 20260505172511 | 26 | 348 | 0.0 | 4.8 | 0.00 | 0.00 | 0.00 | 55 | 1009.7 |
| 20260505171515 | 26 | 311 | 0.0 | 8.0 | 0.00 | 0.00 | 0.00 | 55 | 1010.0 |
| 20260505171010 | 26 | 313 | 1.6 | 8.0 | 0.00 | 0.00 | 0.00 | 55 | 1010.0 |
| 20260505170508 | 26 | 19 | 0.0 | 8.0 | 0.00 | 0.00 | 0.00 | 55 | 1010.0 |
| 20260505170014 | 26 | 300 | 0.0 | 8.0 | 0.00 | 0.00 | 0.00 | 56 | 1010.1 |
| 20260505165507 | 25 | 284 | 0.0 | 9.7 | 0.00 | 0.00 | 0.00 | 56 | 1010.1 |
| 20260505165011 | 25 | 315 | 1.6 | 9.7 | 0.00 | 0.00 | 0.00 | 56 | 1010.1 |
| 20260505164506 | 25 | 330 | 1.6 | 8.0 | 0.00 | 0.00 | 0.00 | 56 | 1010.1 |
| 20260505164006 | 25 | 336 | 0.0 | 1.6 | 0.00 | 0.00 | 0.00 | 56 | 1010.2 |
| 20260505163507 | 25 | 336 | 0.0 | 4.8 | 0.00 | 0.00 | 0.00 | 56 | 1010.3 |
| 20260505163008 | 25 | 336 | 0.0 | 4.8 | 0.00 | 0.00 | 0.00 | 56 | 1010.4 |
| 20260505162506 | 25 | 333 | 1.6 | 6.4 | 0.00 | 0.00 | 0.00 | 56 | 1010.5 |
| 20260505161506 | 25 | 12 | 0.0 | 6.4 | 0.00 | 0.00 | 0.00 | 56 | 1010.5 |
| 20260505161006 | 25 | 345 | 0.0 | 6.4 | 0.00 | 0.00 | 0.00 | 56 | 1010.7 |
| 20260505160507 | 25 | 342 | 1.6 | 11.3 | 0.00 | 0.00 | 0.00 | 56 | 1010.8 |
| 20260505153003 | 25 | 37 | 3.2 | 12.9 | 0.00 | 0.00 | 0.00 | 55 | 1010.8 |
| 20260505152501 | 25 | 40 | 4.8 | 14.5 | 0.00 | 0.00 | 0.00 | 55 | 1010.9 |
| 20260505151503 | 24 | 49 | 3.2 | 12.9 | 0.00 | 0.00 | 0.00 | 56 | 1011.0 |
| 20260505151104 | 24 | 86 | 3.2 | 12.9 | 0.00 | 0.00 | 0.00 | 56 | 1011.1 |
| 20260505150559 | 24 | 35 | 3.2 | 12.9 | 0.00 | 0.00 | 0.00 | 56 | 1011.2 |
| 20260505140548 | 22 | 93 | 3.2 | 11.3 | 0.00 | 0.00 | 0.00 | 59 | 1011.9 |
| 20260505125034 | 20 | 81 | 4.8 | 12.9 | 0.00 | 0.00 | 0.00 | 67 | 1011.7 |
| 20260505124538 | 19 | 47 | 6.4 | 12.9 | 0.00 | 0.00 | 0.00 | 67 | 1011.7 |
| 20260505124032 | 19 | 36 | 4.8 | 16.1 | 0.00 | 0.00 | 0.00 | 67 | 1011.7 |
| 20260505123534 | 19 | 32 | 4.8 | 16.1 | 0.00 | 0.00 | 0.00 | 68 | 1011.7 |
| 20260505123029 | 19 | 347 | 6.4 | 14.5 | 0.00 | 0.00 | 0.00 | 68 | 1011.6 |
| 20260505122528 | 18 | 36 | 1.6 | 8.0 | 0.00 | 0.00 | 0.00 | 68 | 1011.4 |
| 20260505121528 | 18 | 50 | 3.2 | 14.5 | 0.00 | 0.00 | 0.00 | 68 | 1011.4 |
| 20260505121028 | 18 | 80 | 3.2 | 12.9 | 0.00 | 0.00 | 0.00 | 68 | 1011.3 |
| 20260505120530 | 18 | 54 | 6.4 | 12.9 | 0.00 | 0.00 | 0.00 | 69 | 1011.3 |
| 20260505120027 | 18 | 46 | 3.2 | 11.3 | 0.00 | 0.00 | 0.00 | 68 | 1011.2 |
| 20260505115527 | 18 | 355 | 3.2 | 8.0 | 0.00 | 0.00 | 0.00 | 68 | 1011.4 |
| 20260505115027 | 18 | 53 | 1.6 | 9.7 | 0.00 | 0.00 | 0.00 | 69 | 1011.4 |
| 20260505114527 | 18 | 56 | 3.2 | 9.7 | 0.00 | 0.00 | 0.00 | 69 | 1011.4 |
| 20260505114027 | 18 | 39 | 3.2 | 8.0 | 0.00 | 0.00 | 0.00 | 69 | 1011.4 |
| 20260505113527 | 18 | 48 | 3.2 | 8.0 | 0.00 | 0.00 | 0.00 | 69 | 1011.4 |
| 20260505113026 | 18 | 41 | 1.6 | 8.0 | 0.00 | 0.00 | 0.00 | 69 | 1011.4 |
| 20260505112525 | 18 | 85 | 1.6 | 6.4 | 0.00 | 0.00 | 0.00 | 69 | 1011.4 |
| 20260505111533 | 18 | 40 | 1.6 | 6.4 | 0.00 | 0.00 | 0.00 | 69 | 1011.2 |
| 20260505111024 | 18 | 46 | 3.2 | 6.4 | 0.00 | 0.00 | 0.00 | 69 | 1011.1 |
| 20260505110524 | 18 | 87 | 0.0 | 6.4 | 0.00 | 0.00 | 0.00 | 69 | 1011.0 |
| 20260505101523 | 18 | 34 | 4.8 | 9.7 | 0.00 | 0.00 | 0.00 | 68 | 1010.5 |
| 20260505101023 | 18 | 57 | 3.2 | 11.3 | 0.00 | 0.00 | 0.00 | 68 | 1010.4 |
| 20260505100526 | 18 | 54 | 3.2 | 11.3 | 0.00 | 0.00 | 0.00 | 68 | 1010.5 |
| 20260505100027 | 18 | 30 | 4.8 | 9.7 | 0.00 | 0.00 | 0.00 | 68 | 1010.5 |
| 20260505095522 | 18 | 60 | 3.2 | 9.7 | 0.00 | 0.00 | 0.00 | 68 | 1010.4 |
| 20260505095021 | 18 | 30 | 1.6 | 6.4 | 0.00 | 0.00 | 0.00 | 68 | 1010.3 |
| 20260505094522 | 18 | 76 | 3.2 | 8.0 | 0.00 | 0.00 | 0.00 | 69 | 1010.3 |
| 20260505094022 | 18 | 47 | 1.6 | 9.7 | 0.00 | 0.00 | 0.00 | 69 | 1010.3 |
| 20260505093523 | 18 | 26 | 3.2 | 9.7 | 0.00 | 0.00 | 0.00 | 69 | 1010.2 |
| 20260505093021 | 18 | 51 | 1.6 | 9.7 | 0.00 | 0.00 | 0.00 | 69 | 1010.1 |
| 20260505092525 | 18 | 49 | 1.6 | 9.7 | 0.00 | 0.00 | 0.00 | 69 | 1010.3 |
| 20260505091520 | 18 | 44 | 1.6 | 9.7 | 0.00 | 0.00 | 0.00 | 69 | 1010.1 |
| 20260505091026 | 18 | 45 | 4.8 | 11.3 | 0.00 | 0.00 | 0.00 | 69 | 1010.3 |
| 20260505090520 | 18 | 58 | 6.4 | 11.3 | 0.00 | 0.00 | 0.00 | 69 | 1010.2 |
| 20260505090021 | 18 | 42 | 3.2 | 11.3 | 0.00 | 0.00 | 0.00 | 69 | 1010.2 |
| 20260505085520 | 18 | 34 | 3.2 | 9.7 | 0.00 | 0.00 | 0.00 | 69 | 1010.2 |
| 20260505085019 | 18 | 21 | 3.2 | 11.3 | 0.00 | 0.00 | 0.00 | 69 | 1010.0 |
| 20260505084521 | 18 | 34 | 4.8 | 11.3 | 0.00 | 0.00 | 0.00 | 69 | 1010.0 |
| 20260505084018 | 18 | 43 | 3.2 | 8.0 | 0.00 | 0.00 | 0.00 | 69 | 1009.9 |
| 20260505083518 | 18 | 92 | 1.6 | 8.0 | 0.00 | 0.00 | 0.00 | 69 | 1009.9 |
| 20260505083018 | 18 | 78 | 3.2 | 9.7 | 0.00 | 0.00 | 0.00 | 68 | 1010.0 |
| 20260505082517 | 18 | 46 | 3.2 | 9.7 | 0.00 | 0.00 | 0.00 | 68 | 1010.1 |
| 20260505081526 | 18 | 47 | 3.2 | 8.0 | 0.00 | 0.00 | 0.00 | 68 | 1010.1 |
| 20260505081017 | 18 | 63 | 1.6 | 9.7 | 0.00 | 0.00 | 0.00 | 68 | 1010.0 |
| 20260505080521 | 18 | 36 | 3.2 | 9.7 | 0.00 | 0.00 | 0.00 | 68 | 1010.2 |
| 20260505080016 | 18 | 63 | 1.6 | 8.0 | 0.00 | 0.00 | 0.00 | 68 | 1010.2 |
| 20260505075515 | 18 | 43 | 1.6 | 11.3 | 0.00 | 0.00 | 0.00 | 68 | 1010.2 |
| 20260505075019 | 18 | 48 | 3.2 | 12.9 | 0.00 | 0.00 | 0.00 | 68 | 1010.2 |
| 20260505074516 | 18 | 34 | 4.8 | 12.9 | 0.00 | 0.00 | 0.00 | 68 | 1010.3 |
| 20260505074015 | 18 | 91 | 3.2 | 11.3 | 0.00 | 0.00 | 0.00 | 68 | 1010.2 |
| 20260505073515 | 18 | 40 | 3.2 | 11.3 | 0.00 | 0.00 | 0.00 | 67 | 1010.4 |
| 20260505073014 | 18 | 133 | 3.2 | 8.0 | 0.00 | 0.00 | 0.00 | 67 | 1010.4 |
| 20260505072513 | 18 | 89 | 3.2 | 11.3 | 0.00 | 0.00 | 0.00 | 67 | 1010.5 |
| 20260505071531 | 18 | 67 | 3.2 | 9.7 | 0.00 | 0.00 | 0.00 | 67 | 1010.5 |
| 20260505071014 | 18 | 109 | 4.8 | 9.7 | 0.00 | 0.00 | 0.00 | 66 | 1010.3 |
| 20260505070517 | 18 | 45 | 0.0 | 6.4 | 0.00 | 0.00 | 0.00 | 66 | 1010.3 |
| 20260505070014 | 18 | 87 | 3.2 | 6.4 | 0.00 | 0.00 | 0.00 | 66 | 1010.2 |
| 20260505065512 | 18 | 77 | 3.2 | 6.4 | 0.00 | 0.00 | 0.00 | 65 | 1010.5 |
| 20260505065011 | 18 | 52 | 1.6 | 8.0 | 0.00 | 0.00 | 0.00 | 65 | 1010.5 |
| 20260505064520 | 18 | 62 | 3.2 | 8.0 | 0.00 | 0.00 | 0.00 | 64 | 1010.5 |
| 20260505064011 | 18 | 49 | 3.2 | 8.0 | 0.00 | 0.00 | 0.00 | 64 | 1010.6 |
| 20260505063510 | 18 | 62 | 3.2 | 6.4 | 0.00 | 0.00 | 0.00 | 63 | 1010.7 |
| 20260505063013 | 18 | 40 | 3.2 | 6.4 | 0.00 | 0.00 | 0.00 | 63 | 1010.8 |
| 20260505062509 | 18 | 45 | 1.6 | 9.7 | 0.00 | 0.00 | 0.00 | 62 | 1010.9 |
| 20260505061510 | 18 | 41 | 0.0 | 9.7 | 0.00 | 0.00 | 0.00 | 61 | 1010.8 |
| 20260505061012 | 18 | 78 | 1.6 | 6.4 | 0.00 | 0.00 | 0.00 | 61 | 1010.8 |
| 20260505060509 | 18 | 33 | 1.6 | 8.0 | 0.00 | 0.00 | 0.00 | 60 | 1010.7 |
| 20260505060007 | 18 | 69 | 3.2 | 8.0 | 0.00 | 0.00 | 0.00 | 59 | 1010.8 |
| 20260505055506 | 18 | 85 | 1.6 | 4.8 | 0.00 | 0.00 | 0.00 | 59 | 1010.6 |
| 20260505055006 | 18 | 80 | 0.0 | 8.0 | 0.00 | 0.00 | 0.00 | 59 | 1010.7 |
| 20260505054506 | 18 | 70 | 3.2 | 8.0 | 0.00 | 0.00 | 0.00 | 58 | 1010.7 |
| 20260505054006 | 18 | 348 | 1.6 | 8.0 | 0.00 | 0.00 | 0.00 | 58 | 1010.7 |
| 20260505053505 | 18 | 54 | 1.6 | 9.7 | 0.00 | 0.00 | 0.00 | 58 | 1010.8 |
| 20260505053005 | 18 | 72 | 1.6 | 9.7 | 0.00 | 0.00 | 0.00 | 58 | 1010.8 |
| 20260505052506 | 18 | 42 | 1.6 | 9.7 | 0.00 | 0.00 | 0.00 | 57 | 1010.8 |
| 20260505051506 | 18 | 54 | 1.6 | 11.3 | 0.00 | 0.00 | 0.00 | 57 | 1010.8 |
| 20260505051006 | 18 | 43 | 4.8 | 11.3 | 0.00 | 0.00 | 0.00 | 57 | 1010.8 |
| 20260505050504 | 18 | 51 | 3.2 | 12.9 | 0.00 | 0.00 | 0.00 | 56 | 1010.8 |
| 20260505041600 | 19 | 355 | 1.6 | 11.3 | 0.00 | 0.00 | 0.00 | 55 | 1010.8 |
| 20260505041059 | 19 | 40 | 3.2 | 12.9 | 0.00 | 0.00 | 0.00 | 55 | 1010.8 |
| 20260505040602 | 19 | 31 | 4.8 | 12.9 | 0.00 | 0.00 | 0.00 | 55 | 1010.7 |
| 20260505040105 | 19 | 44 | 3.2 | 11.3 | 0.00 | 0.00 | 0.00 | 55 | 1010.8 |
| 20260505035558 | 19 | 25 | 3.2 | 14.5 | 0.00 | 0.00 | 0.00 | 55 | 1010.8 |
| 20260505035057 | 19 | 28 | 3.2 | 14.5 | 0.00 | 0.00 | 0.00 | 55 | 1010.8 |
| 20260505034557 | 19 | 21 | 4.8 | 12.9 | 0.00 | 0.00 | 0.00 | 55 | 1010.9 |
| 20260505034057 | 19 | 36 | 4.8 | 12.9 | 0.00 | 0.00 | 0.00 | 55 | 1011.0 |
| 20260505033557 | 19 | 28 | 4.8 | 12.9 | 0.00 | 0.00 | 0.00 | 54 | 1011.1 |
| 20260505033100 | 19 | 338 | 1.6 | 9.7 | 0.00 | 0.00 | 0.00 | 54 | 1011.2 |
| 20260505032557 | 19 | 30 | 1.6 | 8.0 | 0.00 | 0.00 | 0.00 | 54 | 1011.2 |
| 20260505031559 | 19 | 34 | 1.6 | 8.0 | 0.00 | 0.00 | 0.00 | 54 | 1011.1 |
| 20260505031056 | 19 | 356 | 1.6 | 4.8 | 0.00 | 0.00 | 0.00 | 54 | 1011.1 |
| 20260505030555 | 19 | 40 | 1.6 | 8.0 | 0.00 | 0.00 | 0.00 | 54 | 1010.9 |
| 20260505030056 | 19 | 27 | 1.6 | 8.0 | 0.00 | 0.00 | 0.00 | 54 | 1011.0 |
| 20260505025556 | 19 | 23 | 1.6 | 8.0 | 0.00 | 0.00 | 0.00 | 54 | 1010.9 |
| 20260505025054 | 19 | 20 | 1.6 | 9.7 | 0.00 | 0.00 | 0.00 | 54 | 1010.9 |
| 20260505024555 | 19 | 30 | 3.2 | 9.7 | 0.00 | 0.00 | 0.00 | 54 | 1010.8 |
| 20260505024054 | 18 | 52 | 3.2 | 11.3 | 0.00 | 0.00 | 0.00 | 54 | 1010.7 |
| 20260505023554 | 18 | 336 | 4.8 | 11.3 | 0.00 | 0.00 | 0.00 | 54 | 1010.6 |
| 20260505023107 | 18 | 337 | 3.2 | 9.7 | 0.00 | 0.00 | 0.00 | 54 | 1010.7 |
| 20260505022554 | 18 | 25 | 4.8 | 11.3 | 0.00 | 0.00 | 0.00 | 54 | 1010.7 |
| 20260505021559 | 18 | 27 | 3.2 | 14.5 | 0.00 | 0.00 | 0.00 | 54 | 1010.6 |
| 20260505021052 | 18 | 26 | 4.8 | 14.5 | 0.00 | 0.00 | 0.00 | 54 | 1010.3 |
| 20260505020552 | 18 | 96 | 4.8 | 12.9 | 0.00 | 0.00 | 0.00 | 54 | 1010.4 |
| 20260505020056 | 18 | 19 | 4.8 | 12.9 | 0.00 | 0.00 | 0.00 | 54 | 1010.3 |
| 20260505015552 | 18 | 49 | 6.4 | 14.5 | 0.00 | 0.00 | 0.00 | 54 | 1010.3 |
| 20260505015055 | 18 | 45 | 4.8 | 14.5 | 0.00 | 0.00 | 0.00 | 54 | 1010.3 |
| 20260505014552 | 18 | 31 | 6.4 | 14.5 | 0.00 | 0.00 | 0.00 | 54 | 1010.3 |
| 20260505014053 | 18 | 24 | 4.8 | 14.5 | 0.00 | 0.00 | 0.00 | 54 | 1010.3 |
| 20260505013551 | 18 | 63 | 6.4 | 14.5 | 0.00 | 0.00 | 0.00 | 54 | 1010.3 |
| 20260505013052 | 18 | 44 | 4.8 | 9.7 | 0.00 | 0.00 | 0.00 | 54 | 1010.2 |
| 20260505012552 | 18 | 347 | 3.2 | 9.7 | 0.00 | 0.00 | 0.00 | 54 | 1010.3 |
| 20260505011554 | 18 | 49 | 3.2 | 9.7 | 0.00 | 0.00 | 0.00 | 54 | 1010.0 |
| 20260505011055 | 18 | 55 | 3.2 | 9.7 | 0.00 | 0.00 | 0.00 | 55 | 1010.1 |
| 20260505010550 | 18 | 31 | 3.2 | 9.7 | 0.00 | 0.00 | 0.00 | 55 | 1010.2 |
| 20260505010053 | 18 | 20 | 4.8 | 8.0 | 0.00 | 0.00 | 0.00 | 55 | 1010.2 |
| 20260505005550 | 18 | 44 | 3.2 | 8.0 | 0.00 | 0.00 | 0.00 | 56 | 1010.3 |
| 20260505005050 | 18 | 62 | 3.2 | 9.7 | 0.00 | 0.00 | 0.00 | 56 | 1010.3 |
| 20260505004550 | 18 | 14 | 3.2 | 9.7 | 0.00 | 0.00 | 0.00 | 56 | 1010.3 |
| 20260505004049 | 18 | 32 | 1.6 | 9.7 | 0.00 | 0.00 | 0.00 | 56 | 1010.3 |
| 20260505003549 | 18 | 33 | 0.0 | 9.7 | 0.00 | 0.00 | 0.00 | 56 | 1010.3 |
| 20260505003049 | 18 | 43 | 4.8 | 9.7 | 0.00 | 0.00 | 0.00 | 56 | 1010.3 |
| 20260505002549 | 19 | 326 | 3.2 | 6.4 | 0.00 | 0.00 | 0.00 | 55 | 1010.2 |
| 20260505001550 | 19 | 19 | 4.8 | 8.0 | 0.00 | 0.00 | 0.00 | 55 | 1010.4 |
| 20260505001050 | 19 | 348 | 0.0 | 6.4 | 0.00 | 0.00 | 0.00 | 54 | 1010.3 |
| 20260505000549 | 19 | 358 | 0.0 | 6.4 | 0.00 | 0.00 | 0.00 | 54 | 1010.3 |
| 20260505000055 | 19 | 339 | 1.6 | 4.8 | 0.00 | 0.00 | 0.00 | 53 | 1010.3 |
| 20260504235551 | 19 | 352 | 0.0 | 4.8 | 0.00 | 0.00 | 0.00 | 52 | 1010.2 |
| 20260504235049 | 20 | 345 | 0.0 | 4.8 | 0.00 | 0.00 | 0.00 | 52 | 1010.2 |
| 20260504234549 | 20 | 359 | 0.0 | 4.8 | 0.00 | 0.00 | 0.00 | 52 | 1010.1 |
| 20260504234053 | 20 | 44 | 0.0 | 4.8 | 0.00 | 0.00 | 0.00 | 51 | 1010.0 |
| 20260504233548 | 20 | 11 | 1.6 | 6.4 | 0.00 | 0.00 | 0.00 | 51 | 1009.9 |
| 20260504233052 | 20 | 27 | 1.6 | 6.4 | 0.00 | 0.00 | 0.00 | 51 | 1009.7 |
| 20260504232548 | 20 | 37 | 0.0 | 6.4 | 0.00 | 0.00 | 0.00 | 51 | 1009.6 |
| 20260504231547 | 20 | 35 | 0.0 | 4.8 | 0.00 | 0.00 | 0.00 | 50 | 1009.4 |
| 20260504231046 | 21 | 65 | 0.0 | 4.8 | 0.00 | 0.00 | 0.00 | 50 | 1009.4 |
| 20260504230549 | 21 | 83 | 0.0 | 4.8 | 0.00 | 0.00 | 0.00 | 50 | 1009.3 |
| 20260504230047 | 21 | 67 | 1.6 | 4.8 | 0.00 | 0.00 | 0.00 | 50 | 1009.2 |
| 20260504225545 | 21 | 47 | 0.0 | 4.8 | 0.00 | 0.00 | 0.00 | 49 | 1009.2 |
| 20260504225050 | 21 | 55 | 0.0 | 4.8 | 0.00 | 0.00 | 0.00 | 49 | 1009.3 |
| 20260504224548 | 21 | 47 | 0.0 | 3.2 | 0.00 | 0.00 | 0.00 | 49 | 1009.2 |
| 20260504224047 | 21 | 60 | 0.0 | 3.2 | 0.00 | 0.00 | 0.00 | 48 | 1009.1 |
| 20260504223545 | 21 | 22 | 0.0 | 4.8 | 0.00 | 0.00 | 0.00 | 48 | 1009.1 |
| 20260504223045 | 21 | 42 | 1.6 | 4.8 | 0.00 | 0.00 | 0.00 | 48 | 1009.1 |
| 20260504222546 | 21 | 42 | 0.0 | 6.4 | 0.00 | 0.00 | 0.00 | 48 | 1009.1 |
| 20260504221546 | 21 | 47 | 1.6 | 4.8 | 0.00 | 0.00 | 0.00 | 47 | 1009.0 |
| 20260504221045 | 21 | 56 | 0.0 | 4.8 | 0.00 | 0.00 | 0.00 | 47 | 1008.9 |
| 20260504220545 | 21 | 23 | 1.6 | 4.8 | 0.00 | 0.00 | 0.00 | 47 | 1008.9 |
| 20260504220107 | 22 | 47 | 0.0 | 3.2 | 0.00 | 0.00 | 0.00 | 46 | 1008.9 |
| 20260504215545 | 22 | 46 | 0.0 | 6.4 | 0.00 | 0.00 | 0.00 | 46 | 1008.8 |
| 20260504215044 | 22 | 51 | 0.0 | 8.0 | 0.00 | 0.00 | 0.00 | 46 | 1008.6 |
| 20260504214552 | 22 | 41 | 1.6 | 8.0 | 0.00 | 0.00 | 0.00 | 46 | 1008.7 |
| 20260504214044 | 22 | 53 | 0.0 | 8.0 | 0.00 | 0.00 | 0.00 | 46 | 1008.6 |
| 20260504213544 | 22 | 45 | 3.2 | 8.0 | 0.00 | 0.00 | 0.00 | 45 | 1008.5 |
| 20260504213050 | 22 | 47 | 0.0 | 8.0 | 0.00 | 0.00 | 0.00 | 45 | 1008.6 |
| 20260504212543 | 22 | 40 | 1.6 | 9.7 | 0.00 | 0.00 | 0.00 | 45 | 1008.6 |
| 20260504211542 | 22 | 23 | 3.2 | 9.7 | 0.00 | 0.00 | 0.00 | 44 | 1008.7 |
| 20260504211042 | 22 | 45 | 4.8 | 8.0 | 0.00 | 0.00 | 0.00 | 43 | 1008.7 |
| 20260504210542 | 23 | 46 | 1.6 | 11.3 | 0.00 | 0.00 | 0.00 | 43 | 1008.7 |
| 20260504210042 | 23 | 20 | 0.0 | 8.0 | 0.00 | 0.00 | 0.00 | 43 | 1008.7 |
| 20260504205542 | 23 | 16 | 1.6 | 9.7 | 0.00 | 0.00 | 0.00 | 42 | 1008.8 |
| 20260504205041 | 23 | 344 | 3.2 | 9.7 | 0.00 | 0.00 | 0.00 | 42 | 1008.7 |
| 20260504204542 | 23 | 34 | 4.8 | 11.3 | 0.00 | 0.00 | 0.00 | 42 | 1008.8 |
| 20260504204040 | 23 | 42 | 6.4 | 14.5 | 0.00 | 0.00 | 0.00 | 41 | 1008.8 |
| 20260504203541 | 23 | 23 | 3.2 | 14.5 | 0.00 | 0.00 | 0.00 | 41 | 1008.8 |
| 20260504203041 | 23 | 82 | 6.4 | 14.5 | 0.00 | 0.00 | 0.00 | 41 | 1008.8 |
| 20260504202539 | 23 | 357 | 4.8 | 14.5 | 0.00 | 0.00 | 0.00 | 40 | 1008.8 |
| 20260504201539 | 23 | 46 | 8.0 | 14.5 | 0.00 | 0.00 | 0.00 | 40 | 1008.8 |
| 20260504201043 | 23 | 355 | 8.0 | 17.7 | 0.00 | 0.00 | 0.00 | 39 | 1008.9 |
| 20260504200540 | 24 | 23 | 4.8 | 17.7 | 0.00 | 0.00 | 0.00 | 39 | 1008.9 |
| 20260504200048 | 24 | 9 | 9.7 | 16.1 | 0.00 | 0.00 | 0.00 | 39 | 1008.9 |
| 20260504195538 | 24 | 348 | 1.6 | 17.7 | 0.00 | 0.00 | 0.00 | 39 | 1009.0 |
| 20260504195038 | 25 | 46 | 9.7 | 17.7 | 0.00 | 0.00 | 0.00 | 38 | 1008.9 |
| 20260504194541 | 25 | 34 | 4.8 | 16.1 | 0.00 | 0.00 | 0.00 | 38 | 1008.9 |
| 20260504194038 | 25 | 16 | 4.8 | 14.5 | 0.00 | 0.00 | 0.00 | 38 | 1008.9 |
| 20260504193537 | 25 | 350 | 6.4 | 16.1 | 0.00 | 0.00 | 0.00 | 38 | 1009.0 |
| 20260504193037 | 25 | 25 | 8.0 | 16.1 | 0.00 | 0.00 | 0.00 | 37 | 1009.0 |
| 20260504192536 | 25 | 312 | 8.0 | 16.1 | 0.00 | 0.00 | 0.00 | 37 | 1008.9 |
| 20260504191550 | 25 | 11 | 9.7 | 17.7 | 0.00 | 0.00 | 0.00 | 37 | 1009.0 |
| 20260504191038 | 25 | 350 | 4.8 | 14.5 | 0.00 | 0.00 | 0.00 | 37 | 1009.1 |
| 20260504190539 | 25 | 9 | 4.8 | 14.5 | 0.00 | 0.00 | 0.00 | 37 | 1009.1 |
| 20260504190043 | 25 | 59 | 3.2 | 14.5 | 0.00 | 0.00 | 0.00 | 37 | 1009.2 |
| 20260504185535 | 25 | 55 | 6.4 | 16.1 | 0.00 | 0.00 | 0.00 | 37 | 1009.2 |
| 20260504185035 | 25 | 348 | 6.4 | 16.1 | 0.00 | 0.00 | 0.00 | 37 | 1009.2 |